Reflectivity
-20 -20 -20 -20 -20 -20 -20 -20 -20 -20 -20 -20 -20 -20 -20 -20 -20 -20 -20 -20 -20 -20 -20 -20 -20 -20 -7 -11 -20 -20 -20 -20 -20 -15 -14 -19 -20 -20 -20 0 -18 -20 -20
-20 -20 -20 -20 -20 -20 -20 -20 -20 -20 -20 -20 -20 -20 -20 -20 -20 -20 -20 -20 -20 -20 -20 -20 -20 -20 -20 3 -14 -20 -20 -14 -3 -18 -4 4 -14 -3 -1 2 -20 -20 -20
-20 -20 -20 -20 -20 -20 -20 -20 -20 -20 -20 -20 -20 -20 -20 -20 -20 -20 -20 -20 -20 -20 -20 -20 -20 -20 -20 -1 -2 -20 -20 -20 -20 -20 -20 11 12 6 12 -20 -20 -20 -20
-20 -20 -20 -20 -20 -20 -20 -20 -20 -20 -20 -20 -20 -20 -20 -20 -20 -20 -20 -20 -20 -20 -20 -20 -20 -20 -20 -20 -20 16 16 16 13 10 9 12 11 -20 -5 5 2 11 16
-20 -20 -20 -20 -20 -20 -20 -20 -20 -20 -20 -20 -20 -20 -20 -20 -20 -20 -20 -20 -20 -20 -20 -20 -20 -20 -20 -20 -20 -20 -7 -4 -10 -18 -20 -2 -11 -17 -2 -10 -20 -5 -4
-20 -20 -20 -20 -20 -20 -20 -20 -20 -20 -20 -20 -20 -20 -20 -20 -20 -20 -20 -20 -20 -20 -20 -20 -20 -20 -20 -20 -20 -20 -20 -20 -20 -20 -20 -20 -20 -20 -20 -20 -12 -15 8
-20 -20 -20 -20 -20 -20 -20 -20 -20 -20 -20 -20 -20 -20 -20 -20 -20 -20 -20 -20 -20 -20 -20 -20 -20 -20 -20 -20 -20 -20 -20 -20 -20 -20 -20 -20 -20 -20 -20 -20 -20 2 5
-20 -20 -20 -20 -20 -20 -20 -20 -20 -20 -20 -20 -20 -20 -20 -20 -20 -20 -20 -20 -20 -20 -20 -20 -20 -20 -20 -20 -20 -20 -20 -20 -20 -20 -20 -20 -20 -20 -20 -20 -9 15 11
-20 -20 -20 -20 -20 -20 -20 -20 -20 -20 -20 -20 -20 -20 -20 -20 -20 -20 -20 -20 -20 -20 -20 -20 -20 -20 -20 -20 -20 -20 -20 -20 -20 -20 -20 -20 -20 -20 -20 -20 -20 -17 -20
-20 -20 -20 -20 -20 -20 -20 -20 -20 -20 -20 -20 -20 -20 -20 -20 -20 -20 -20 -20 -20 -20 -20 -20 -20 -20 -20 -20 -20 -20 -20 -20 -20 -20 -20 -20 -20 -20 -20 -20 -20 -20 -20
-20 -20 -20 -20 -20 -20 -20 -20 -20 -20 -20 -20 -20 -20 -20 -20 -20 -20 -20 -20 -20 -20 -20 -20 -20 -20 -20 -20 -20 -20 -20 -20 -20 -20 -20 -20 -20 -20 -20 -20 -20 -20 -20
-20 -20 -20 -20 -20 -20 -20 -20 -20 -20 -20 -20 -20 -20 -20 -20 -20 -20 -20 -20 -20 -20 -20 -20 -20 -20 -20 -20 -20 -20 -20 -20 -20 -20 -20 -20 -20 -20 -20 -20 -20 -20 -20
-20 -20 -20 -20 -20 -20 -20 -20 -20 -20 -20 -20 -20 -20 -20 -20 -20 -20 -20 -20 -20 -20 -20 -20 -20 -20 -20 -20 -20 -20 -20 -20 -20 -20 -20 -20 -20 -20 -20 -20 -20 -20 -20
-20 -20 -20 -20 -20 -20 -20 -20 -20 -20 -20 -20 -20 -20 -20 -20 -20 -20 -20 -20 -20 -20 -20 -20 -20 -20 -20 -20 -20 -20 -20 -20 -20 -20 -20 -20 -20 -20 -20 -20 -20 -20 -20
-12 -20 -20 -20 -20 -20 -20 -20 -20 -20 -20 -20 -20 -20 -20 -20 -20 -20 -20 -20 -20 -20 -20 -20 -20 -20 -20 -20 -20 -20 -20 -20 -20 -20 -20 -20 -20 -20 -20 -20 -20 -20 -20
-20 -20 -18 -10 -20 -20 -20 -18 -9 -19 -20 -20 -20 -14 -17 -19 -20 -20 -20 -20 -20 -20 -20 -20 -20 -20 -20 -20 -20 -20 -20 -20 -20 -20 -20 -20 -20 -20 -20 -20 -20 -20 -20
-20 -20 -20 -20 -20 -20 -20 -12 -18 -20 -20 -20 -16 -14 -20 -20 -20 -20 -19 -10 -19 -10 -16 -20 -20 -20 -20 -20 -20 -20 -20 -20 -20 -20 -20 -20 -20 -20 -20 -20 -20 -20 -20
16 -7 -20 -20 -20 -20 -20 -20 -20 -20 -20 -18 -20 -20 -19 -20 -20 -20 -20 -20 -20 -20 -20 -20 -20 -20 -20 -20 -20 -20 -20 -20 -20 -20 -20 -20 -20 -20 -20 -20 -20 -20 -20
17 -4 -10 -17 -20 -19 -20 -10 -11 -14 -20 -10 5 -5 -20 -20 -18 -9 -18 -20 -20 -20 -20 -20 -20 -20 -20 -20 -20 -20 -20 -20 -20 -20 -20 -20 -20 -20 -20 -20 -20 -20 -20
-9 23 23 20 17 7 -20 -7 11 -14 1 6 -8 -20 -16 -8 -2 -10 -19 -20 -20 -20 -20 -20 -20 -20 -20 -20 -20 -20 -20 -20 -20 -20 -20 -20 -20 -20 -20 -20 -20 -20 -20
4 26 26 4 14 11 22 25 22 16 11 11 -11 0 9 4 3 -7 -11 -7 -6 -17 -20 -20 -20 -20 -20 -20 -20 -20 -20 -20 -20 -20 -20 -20 -20 -20 -20 -20 -20 -20 -20
20 21 26 18 14 31 31 25 20 12 -2 16 23 16 10 11 9 -2 -5 1 -5 -20 -20 -20 -20 -20 -20 -20 -20 -20 -20 -20 -7 -20 -20 -20 -20 -20 -20 -20 -20 -20 -20
33 33 25 30 26 19 18 19 24 28 25 24 20 18 13 15 6 -11 -20 -20 -20 -20 -20 -20 -20 -20 -20 -20 -20 -17 -19 -8 -20 -20 -9 -20 -20 -20 -20 -20 -20 -20 -20
36 31 29 29 25 18 31 34 27 17 22 31 24 14 12 10 -10 2 -6 -20 -20 -20 -20 -20 -20 -20 -20 -20 -20 -17 -20 -14 -12 -14 -11 -2 -10 -20 -20 -20 -20 -20 -20
26 22 32 35 33 32 25 21 26 31 30 21 5 -6 3 2 -6 -19 -20 -20 -20 -20 -20 -20 -20 -20 -20 -20 -17 -3 -20 -2 -20 -19 -20 -20 -20 -16 -20 -20 -20 -20 -20
33 35 35 34 29 23 28 28 29 29 19 -1 -20 -18 2 -20 -20 -20 -20 -20 -20 -20 -20 -20 -20 -20 -20 -20 -20 -20 -0 8 3 2 -18 -13 -18 -6 1 -20 -20 -20 -20
Wind_Speed
9 9 8 8 8 6 8 8 7 8 8 8 8 8 8 8 10 7 6 13 12 10 11 11 12 11 12 11 12 12 11 11 11 11 11 12 12 13 13 11 11 13 14
7 7 8 7 7 7 7 8 8 8 7 8 8 9 9 8 9 10 8 8 11 11 11 11 11 10 10 11 13 12 12 12 12 10 12 11 11 11 12 12 12 13 13
9 8 7 7 7 6 9 7 8 7 6 6 8 7 8 8 8 9 8 7 8 13 12 11 11 11 11 12 12 12 12 12 11 10 10 10 10 10 12 12 12 13 13
11 8 7 7 8 6 5 6 6 6 6 6 7 6 6 6 8 8 6 5 4 7 10 12 13 13 13 12 12 12 12 11 14 14 12 12 13 14 15 15 14 15 16
12 8 7 8 9 7 6 7 7 7 7 6 7 6 5 5 6 6 8 7 6 5 6 11 15 15 14 14 14 14 14 14 15 14 15 14 14 15 15 14 16 16 17
11 7 6 8 8 7 6 5 8 7 7 6 8 7 5 5 4 5 7 6 6 5 5 4 4 7 12 14 14 14 14 14 14 14 14 14 15 15 15 15 14 16 17
11 9 6 7 7 7 8 9 7 9 8 7 7 6 5 5 6 5 4 5 5 5 4 3 3 3 4 11 13 15 15 15 14 14 14 14 14 15 15 15 14 15 17
10 9 9 8 9 7 9 9 9 7 7 9 7 6 5 4 4 5 4 4 5 3 4 5 5 5 4 4 6 13 15 15 15 15 15 15 15 15 15 15 15 16 17
11 9 10 8 8 8 7 8 9 9 8 8 6 1 4 3 7 4 5 3 4 3 4 4 4 4 5 4 5 9 14 14 14 14 14 14 14 15 16 18 19 19 18
11 10 9 9 8 6 8 8 8 7 7 6 1 1 2 5 4 5 6 5 3 4 3 3 4 3 4 4 5 10 12 13 14 14 15 15 15 16 16 16 17 18 19
11 10 9 9 8 5 7 8 8 6 6 7 4 3 2 0 3 3 6 7 4 4 2 2 3 3 3 3 3 6 10 12 14 15 16 16 16 17 17 18 19 19 19
10 12 11 8 8 7 8 7 7 7 5 5 5 4 4 2 4 1 4 8 6 5 3 3 3 2 3 3 4 6 10 10 13 15 16 17 17 17 17 18 18 18 19
11 13 13 12 9 9 9 8 8 7 7 6 5 4 5 4 4 3 3 3 1 3 2 2 3 2 2 3 3 5 9 7 11 15 16 17 17 18 19 19 19 19 20
9 14 13 12 12 12 11 10 8 7 8 7 8 7 5 5 5 5 3 1 3 3 3 2 2 1 3 3 4 5 6 8 7 14 14 15 15 16 16 17 19 20 20
7 11 13 13 13 13 12 12 8 10 9 8 8 8 7 6 5 5 4 4 2 1 1 4 1 3 3 3 3 4 7 6 11 13 12 13 14 15 16 16 17 17 18
12 12 11 11 11 11 13 12 10 10 11 7 6 9 7 5 5 4 3 3 3 2 1 3 0 3 4 6 5 5 6 7 12 13 13 13 15 16 16 15 16 17 18
12 12 13 12 12 12 11 11 11 11 12 10 8 9 8 6 5 4 3 2 2 1 2 3 2 2 4 5 6 6 6 6 5 13 15 16 18 18 18 16 17 19 19
13 13 13 12 11 9 10 13 13 11 12 11 9 9 9 6 5 4 3 2 1 1 1 5 4 4 4 5 6 7 6 7 6 11 15 17 18 18 18 18 19 19 19
13 13 14 15 14 11 9 8 10 9 9 10 10 8 8 7 5 4 2 1 1 2 2 4 5 4 3 4 4 5 7 6 5 10 13 15 16 16 17 18 18 18 17
15 13 13 14 12 12 11 8 7 8 10 9 6 6 7 5 4 4 2 1 2 2 3 4 3 3 4 4 4 4 5 4 6 7 10 12 14 13 19 19 18 16 15
15 15 15 14 12 10 8 7 7 9 9 10 6 5 6 6 5 3 2 3 1 3 3 2 3 4 4 5 4 4 5 5 6 6 4 7 6 7 8 13 14 12 16
17 16 15 15 13 9 19 15 10 8 8 7 6 5 6 7 6 5 3 0 3 3 4 3 3 5 6 6 5 4 6 6 7 4 4 8 7 8 8 8 16 18 17
16 17 17 16 14 13 19 15 13 6 6 6 6 6 5 5 5 4 4 6 6 5 6 4 6 6 6 6 6 6 7 7 8 7 8 9 7 9 7 9 17 19 19
18 17 16 14 13 10 16 15 14 6 4 5 5 5 4 5 4 2 3 3 2 4 4 3 5 6 7 7 8 7 8 9 6 7 8 9 6 9 8 7 16 20 18
16 14 13 14 12 11 19 16 11 6 6 5 5 5 4 4 5 2 3 5 4 4 4 7 10 11 12 13 11 5 5 6 7 7 7 7 6 7 8 9 8 16 17
15 12 11 10 14 11 18 18 13 6 6 4 4 4 4 1 3 4 4 4 4 4 3 5 4 7 8 6 11 4 4 6 6 6 3 5 8 5 5 4 3 6 8
Wind_Direction
169 161 158 162 162 157 160 171 160 153 157 140 134 130 125 119 113 104 89 53 54 62 74 66 59 46 56 57 59 50 44 42 41 36 34 40 26 18 23 19 12 10 11
166 165 161 163 156 163 160 160 159 160 145 147 136 130 119 115 115 120 120 80 57 56 64 60 53 51 55 66 61 53 46 40 42 30 34 24 21 16 14 12 9 6 356
164 160 161 154 158 164 159 157 153 146 149 134 137 132 126 122 117 121 130 120 100 60 56 57 58 57 50 55 57 55 48 41 39 36 29 23 13 360 360 2 359 356 347
166 164 151 165 154 149 147 146 140 144 147 150 141 131 117 124 124 114 116 107 102 111 67 60 59 56 49 44 43 43 37 32 28 25 22 14 13 7 2 2 1 357 353
167 162 163 150 152 152 158 158 162 156 155 147 135 127 124 123 116 117 106 98 83 82 109 84 71 56 52 46 40 34 28 24 15 13 10 7 5 1 353 354 356 353 354
168 161 156 154 162 151 148 160 157 153 145 136 138 127 116 116 116 123 121 105 98 90 74 79 122 82 62 50 40 32 25 18 10 5 3 360 354 352 344 341 347 353 346
173 157 152 156 156 164 153 163 155 155 144 140 126 121 117 132 125 128 131 120 109 99 99 89 56 38 98 61 40 28 20 14 8 4 359 353 346 344 338 337 350 345 347
168 162 158 163 166 160 161 161 160 152 147 152 152 136 147 146 150 152 136 134 134 121 105 76 71 60 55 60 50 34 17 10 4 360 355 349 345 341 339 339 348 342 335
169 167 163 167 168 158 160 163 164 162 160 179 198 241 152 176 146 158 163 161 147 108 122 106 80 59 45 63 33 22 11 4 359 357 354 348 345 345 346 347 344 339 335
172 170 169 166 163 165 157 165 165 163 160 166 207 43 302 95 201 162 187 171 169 130 125 123 110 85 51 43 49 44 6 359 356 354 352 350 350 348 349 343 338 335 335
171 167 166 162 159 169 153 159 162 161 165 154 175 154 119 103 311 155 158 177 169 123 116 63 99 77 80 66 26 19 356 353 353 350 349 347 347 347 345 341 337 337 335
166 163 162 158 156 160 152 152 157 157 154 139 134 170 160 194 168 205 129 151 181 148 133 139 163 103 94 12 61 12 343 344 347 346 345 345 346 345 344 338 335 333 331
170 167 161 160 155 149 144 143 136 136 134 133 126 104 81 62 50 43 45 79 135 106 146 121 111 86 36 11 10 24 327 326 341 341 338 340 341 342 339 335 333 333 330
171 160 159 155 147 144 141 136 125 119 110 104 100 94 97 79 53 47 50 110 161 153 141 148 128 139 57 358 300 312 307 320 322 324 323 330 334 331 329 331 329 330 328
158 161 153 148 146 143 139 130 128 122 113 105 102 100 99 83 78 69 58 37 18 71 47 119 8 97 19 305 342 323 314 328 314 298 307 319 327 326 324 325 324 326 325
149 154 143 139 138 134 132 125 122 118 116 110 109 111 99 102 92 84 70 62 50 31 310 89 116 34 344 317 309 312 299 306 292 302 308 320 323 324 323 321 321 326 325
153 152 146 145 143 142 132 126 121 123 120 119 116 111 103 113 110 102 96 84 82 42 299 321 4 347 314 306 319 315 312 298 293 314 312 319 321 323 323 321 320 324 322
142 151 141 136 129 124 132 128 130 133 131 128 123 132 114 113 112 114 108 101 357 41 280 286 321 311 316 311 310 306 323 312 305 304 315 315 316 318 321 317 318 317 320
143 147 138 137 133 128 118 116 124 129 133 128 120 123 132 140 137 136 148 154 184 285 271 269 295 290 287 296 318 318 295 278 298 308 307 318 311 318 311 307 309 313 311
138 133 132 127 127 121 118 119 136 130 113 108 110 128 129 135 130 134 171 248 262 282 273 259 269 309 308 302 284 284 308 307 309 317 306 305 307 313 308 310 311 309 309
134 128 123 113 111 112 114 122 133 113 121 116 126 126 106 92 88 78 202 227 240 254 270 314 297 303 289 277 291 303 302 304 307 297 330 300 307 297 298 314 303 305 318
127 120 120 119 121 117 129 132 122 116 103 119 148 141 129 137 151 156 168 312 303 296 299 304 295 291 301 311 312 313 299 300 301 273 300 291 307 304 298 291 304 311 316
126 125 125 128 122 118 125 119 111 120 155 170 155 150 149 142 149 164 197 227 241 247 254 287 280 268 284 297 305 303 298 303 296 308 308 297 293 281 282 290 304 308 312
130 134 133 120 115 119 139 160 161 154 141 148 145 143 144 145 145 150 289 287 256 252 250 257 274 296 297 316 307 299 302 295 280 273 261 273 291 298 297 292 296 304 303
127 122 120 123 131 157 166 160 160 162 172 154 150 152 148 152 134 179 253 254 258 259 244 239 256 271 285 291 291 302 298 301 304 310 313 303 296 302 298 290 284 288 303
118 120 117 129 145 146 170 175 181 175 160 151 153 154 159 181 135 230 256 270 270 268 307 301 324 311 303 303 307 282 302 303 302 302 282 324 304 307 291 269 308 312 287